Lexington Weather

Lexington, Massachusetts, USA

56°F
10/22/2020 8:00pm 
  • Lexington Conditions: Mostly cloudy
  • Temperature: 55.8°F / 13.2°CColder 0.1°F than last hour.
  • Dew Point: 54.3°F 
  • Relative Humidity: 95%Increased 1.0% since last hour.
  • Wind: Wind from NW NW Calm, 10-min avg: 1 mph, gust: 3 mph
  • Barometer: 30.22 in Steady
  • Visibility: 7 miles
  • Rain Today: 0.00 in
  •   
Southeast Middlesex County - Special Weather Statement
 - SEE ALL NEARBY ALERTS -

Regional Weather Roundup
for Boston / Norton, MA

        
000
ASUS41 KBOX 161604
RWRBOX

REGIONAL WEATHER ROUNDUP
NATIONAL WEATHER SERVICE BOSTON/NORTON MA
1200 PM EDT FRI OCT 16 2020

NOTE:  "FAIR" INDICATES FEW OR NO CLOUDS BELOW 12,000 FEET WITH NO 
SIGNIFICANT WEATHER AND/OR OBSTRUCTIONS TO VISIBILITY.

MAZALL-161700-
EASTERN MASSACHUSETTS
  
CITY           SKY/WX    TMP DP  RH WIND       PRES   REMARKS
BOSTON         CLOUDY    68  63  84 S12       30.04S                  
BEVERLY        PTSUNNY   72  64  76 SW14      30.02F                  
LAWRENCE       CLOUDY    71  63  75 S8        30.04R                  
BEDFORD        PTSUNNY   71  63  75 S8        30.02R                  
BLUE HILL        N/A     67  63  87 S12G18    30.04S                  
NORWOOD        PTSUNNY   73  63  70 S12       30.03S                  
MARSHFIELD     CLOUDY    72  66  83 SW8G18    30.04F                  
PLYMOUTH       LGT RAIN  68  63  84 S8        30.06S                  
TAUNTON        LGT RAIN  69  65  86 S8        30.04F FOG              
NEW BEDFORD    CLOUDY    68  65  90 S13       30.05S                  
$$

MAZALL-161700-
CAPE COD AND THE ISLANDS
  
CITY           SKY/WX    TMP DP  RH WIND       PRES   REMARKS
FALMOUTH       DRIZZLE   66  63  88 S15G23    30.07F                  
HYANNIS        CLOUDY    69  61  75 S10G20    30.06F                  
CHATHAM        CLOUDY    66  59  78 S9G16     30.09F                  
PROVINCETOWN   CLOUDY    67  61  81 S15G24    30.07S                  
NANTUCKET        N/A    N/A N/A N/A S16       30.09F                  
MARTHAS VNYRD  CLOUDY    70  62  76 S20G26    30.07S                  
$$
 
MAZALL-161700-
CENTRAL AND WESTERN MASSACHUSETTS
  
CITY           SKY/WX    TMP DP  RH WIND       PRES   REMARKS
WORCESTER      PTSUNNY   58  54  86 NW13G20   30.06R                  
FITCHBURG      CLOUDY    60  54  80 NW14      30.06R                  
ORANGE         LGT RAIN  56  54  93 NW7       30.11R FOG              
SPRINGFIELD    LGT RAIN  56  49  79 N10       30.07S                  
WESTFIELD      LGT RAIN  56  52  86 N6        30.09R FOG              
NORTH ADAMS    CLOUDY    52  48  86 W7        30.11F                  
PITTSFIELD     CLOUDY    51  47  86 NW6       30.08F                  
$$
 
RIZALL-161700-
RHODE ISLAND
  
CITY           SKY/WX    TMP DP  RH WIND       PRES   REMARKS
PROVIDENCE     CLOUDY    70  65  84 S10       30.04F                  
NEWPORT        CLOUDY    65  65 100 S9        30.05S FOG              
BLOCK ISLAND   CLOUDY    66  63  90 S12       30.05F                  
SMITHFIELD     CLOUDY    68  65  90 VRB7        N/A                   
WESTERLY       CLOUDY    67  62  84 S8        30.04F                  
$$
 
CTZALL-161700-
CONNECTICUT
  
CITY           SKY/WX    TMP DP  RH WIND       PRES   REMARKS
BRADLEY INTL   LGT RAIN  57  49  74 N8        30.09R                  
HARTFORD       CLOUDY    59  49  69 N8        30.07S                  
BRIDGEPORT     LGT RAIN  57  52  83 N10       30.06R                  
DANBURY        RAIN      54  52  93 N7        30.08F FOG              
GROTON         CLOUDY    66  65  96 S8        30.02F                  
NEW HAVEN      RAIN      59  53  80 N9        30.06R                  
CHESTER        NOT AVBL                                               
MERIDEN        RAIN      57  50  77 N9        30.07S                  
WILLIMANTIC    CLOUDY    59  55  87 N6        30.05F                  
OXFORD         RAIN      53  52  96 N9        30.09R                  
$$

MEZ002-015-021-024-NHZ003-005-008-011-012-014-VTZ005-008-161700-
NORTHERN NEW ENGLAND
  
CITY           SKY/WX    TMP DP  RH WIND       PRES   REMARKS
PORTLAND ME    NOT AVBL                                               
BANGOR ME      PTSUNNY   66  58  75 S14G22    30.06F                  
CONCORD NH     LGT RAIN  57  53  86 NW12      30.08R                  
MANCHESTER NH  LGT RAIN  60  55  83 NW10      30.05R                  
NASHUA NH      LGT RAIN  59  58  96 NW10      30.07R                  
PORTSMOUTH NH  LGT RAIN  70  63  79 NW12      30.00                   
JAFFREY NH     LGT RAIN  55  51  86 MISG      30.09R                  
KEENE NH       LGT RAIN  55  52  89 NW6       30.11R                  
BURLINGTON VT  LGT RAIN  51  48  89 N5        30.10S                  
MT. WASHINGTON LGT RAIN  36  36 100 W18G25      N/A  VSB 1/16WCI  25  
$$

NYZ052-076-161700-
EASTERN NEW YORK
  
CITY           SKY/WX    TMP DP  RH WIND       PRES   REMARKS
ALBANY         DRIZZLE   48  47  96 W10       30.12F                  
NEW YORK CITY  RAIN      56  51  84 N6        30.08S                  
$$
 
ANZALL-161700-
MARINE OBSERVATIONS
  
STATION/POSITION TIME  TEMP    WIND        PRES    VSBY  WAVE
                       AIR SEA DIR/SP/G                  HT/PER
                 (UTC) (F)     (DEG/KT/KT) (MB)    (MI)  (FT/S)
BOSTON BUOY      1550   61 58  130/ 10/ 10 1016.1R         3/ 9
BUZZARDS BAY     1500          170/ 19/ 21 1018.4F
NANTUCKET SOUND  1540      62  170/ 17/ 21   N/A
MASS BAY-STELLWA 1504   61 58  170/ 12/ 14 1016.6R  1 7/8  3/ 4
ISLE OF SHOALS   1500   61     160/ 23/ 24 1016.2F
S OF BLOCK IS    1526      64                N/A           4/ 5
$$

......................KEY.........................
  SKY/WX - SKY CONDITION/PRESENT WEATHER
  TMP    - TEMPERATURE IN FAHRENHEIT
  DWPT   - DEWPOINT IN FAHRENHEIT
  RH     - RELATIVE HUMIDITY IN PERCENT
  WIND   - DIRECTION AND SPEED IN MPH
  PRES   - MEAN SEA LEVEL PRESSURE IN INCHES OF HG
  WCI    - WIND CHILL INDEX
  VSB    - VISIBILITY IN MILES
  HX     - HEAT INDEX
  TC     - TEMPERATURE IN CELSIUS
  VRB    - VARIABLE WIND DIRECTION
  N/A    - NOT AVAILABLE
  
      

Other recent Regional Weather Roundups

Thu Oct 22, 7:05pm

Thu Oct 22, 6:04pm

Thu Oct 22, 5:04pm

Thu Oct 22, 4:05pm

Thu Oct 22, 3:04pm

Thu Oct 22, 2:05pm

Thu Oct 22, 1:04pm

Thu Oct 22, 12:04pm

Thu Oct 22, 11:04am

Thu Oct 22, 10:05am

Thu Oct 22, 9:04am

Thu Oct 22, 8:05am

Thu Oct 22, 7:04am

Thu Oct 22, 6:04am

Thu Oct 22, 5:04am

Thu Oct 22, 4:04am

Thu Oct 22, 3:04am

Thu Oct 22, 2:04am

Thu Oct 22, 1:04am

Thu Oct 22, 12:04am

Wed Oct 21, 11:05pm

Wed Oct 21, 10:04pm

Wed Oct 21, 9:04pm

Wed Oct 21, 8:04pm

Wed Oct 21, 7:04pm

Wed Oct 21, 6:04pm

Wed Oct 21, 5:05pm

Wed Oct 21, 4:04pm

Wed Oct 21, 3:04pm

Wed Oct 21, 2:05pm

Wed Oct 21, 1:04pm

Wed Oct 21, 12:04pm

Wed Oct 21, 11:04am

Wed Oct 21, 10:04am

Wed Oct 21, 9:04am

Wed Oct 21, 8:04am

Wed Oct 21, 7:04am

Wed Oct 21, 6:04am

Wed Oct 21, 5:04am

Wed Oct 21, 4:04am

Wed Oct 21, 3:04am

Wed Oct 21, 2:04am

Wed Oct 21, 1:04am

Wed Oct 21, 12:04am

Tue Oct 20, 11:05pm

Tue Oct 20, 10:04pm

Tue Oct 20, 9:04pm

Tue Oct 20, 8:05pm

Tue Oct 20, 7:04pm

Tue Oct 20, 6:04pm

Tue Oct 20, 5:05pm

Tue Oct 20, 4:04pm

Tue Oct 20, 3:05pm

Tue Oct 20, 2:07pm

Tue Oct 20, 1:04pm

Tue Oct 20, 12:04pm

Tue Oct 20, 11:04am

Tue Oct 20, 10:05am

Tue Oct 20, 9:04am

Tue Oct 20, 8:04am

Tue Oct 20, 7:04am

Tue Oct 20, 6:04am

Tue Oct 20, 5:04am

Tue Oct 20, 4:04am

Tue Oct 20, 3:04am

Tue Oct 20, 2:04am

Tue Oct 20, 1:04am

Tue Oct 20, 12:04am

Mon Oct 19, 11:04pm

Mon Oct 19, 10:04pm

Mon Oct 19, 9:04pm

Mon Oct 19, 8:04pm

Mon Oct 19, 7:04pm

Mon Oct 19, 6:04pm

Mon Oct 19, 5:04pm

Mon Oct 19, 4:04pm

Mon Oct 19, 3:04pm

Mon Oct 19, 2:04pm

Mon Oct 19, 1:05pm

Mon Oct 19, 12:04pm

Mon Oct 19, 11:04am

Mon Oct 19, 10:04am

Mon Oct 19, 9:04am

Mon Oct 19, 8:04am

Mon Oct 19, 7:04am

Mon Oct 19, 6:04am

Mon Oct 19, 5:04am

Mon Oct 19, 4:04am

Mon Oct 19, 3:04am

Mon Oct 19, 2:04am

Mon Oct 19, 1:04am

Mon Oct 19, 12:05am

Sun Oct 18, 11:04pm

Sun Oct 18, 10:04pm

Sun Oct 18, 9:04pm

Sun Oct 18, 8:04pm

Sun Oct 18, 7:05pm

Sun Oct 18, 6:04pm

Sun Oct 18, 5:05pm

Sun Oct 18, 4:05pm

Sun Oct 18, 3:04pm

Sun Oct 18, 2:05pm

Sun Oct 18, 1:04pm

Sun Oct 18, 12:04pm

Sun Oct 18, 11:04am

Sun Oct 18, 10:04am

Sun Oct 18, 9:04am

Sun Oct 18, 8:04am

Sun Oct 18, 7:04am

Sun Oct 18, 6:04am

Sun Oct 18, 5:04am

Sun Oct 18, 4:04am

Sun Oct 18, 3:04am

Sun Oct 18, 2:04am

Sun Oct 18, 1:04am

Sun Oct 18, 12:04am

Sat Oct 17, 11:05pm

Sat Oct 17, 10:04pm

Sat Oct 17, 9:04pm

Sat Oct 17, 8:04pm

Sat Oct 17, 7:04pm

Sat Oct 17, 6:04pm

Sat Oct 17, 5:05pm

Sat Oct 17, 4:04pm

Sat Oct 17, 3:04pm

Sat Oct 17, 2:05pm

Sat Oct 17, 1:05pm

Sat Oct 17, 12:04pm

Sat Oct 17, 11:05am

Sat Oct 17, 10:04am

Sat Oct 17, 9:04am

Sat Oct 17, 8:04am

Sat Oct 17, 7:04am

Sat Oct 17, 6:04am

Sat Oct 17, 5:04am

Sat Oct 17, 4:04am

Sat Oct 17, 3:04am

Sat Oct 17, 2:04am

Sat Oct 17, 1:05am

Sat Oct 17, 12:04am

Fri Oct 16, 11:05pm

Fri Oct 16, 10:04pm

Fri Oct 16, 9:05pm

Fri Oct 16, 8:04pm

Fri Oct 16, 7:05pm

Fri Oct 16, 6:04pm

Fri Oct 16, 5:04pm

Fri Oct 16, 4:05pm

Fri Oct 16, 3:04pm

Fri Oct 16, 2:04pm

Fri Oct 16, 1:04pm

Fri Oct 16, 11:05am

Fri Oct 16, 10:04am

Fri Oct 16, 9:04am

Fri Oct 16, 8:04am

Fri Oct 16, 7:04am

Fri Oct 16, 6:04am

Fri Oct 16, 5:04am

Fri Oct 16, 4:04am

Fri Oct 16, 3:04am

Fri Oct 16, 2:04am

Fri Oct 16, 1:04am

Fri Oct 16, 12:04am

Thu Oct 15, 11:04pm

Thu Oct 15, 10:04pm

Thu Oct 15, 9:05pm

Thu Oct 15, 8:04pm

Meta data:

ID: 2fa33217-0635-4905-bddf-687c88fd9344
Link: https://api.weather.gov/products/2fa33217-0635-4905-bddf-687c88fd9344